Home > Weather > Cumaná > Past weeks

Flag for Venezuela Past Weather in Cumaná, Venezuela — Yesterday and Last 2 Weeks

Now
81 °F

Scattered clouds.


Feels Like: 86 °F
Forecast: 81 / 90 °F
Wind: N/A

Location: Margarita / Del Carib

Current Time: Jul 28, 2016 at 8:37:32 AM

Latest Report: Jul 28, 2016 at 8:00 AM


Visibility: N/A

Pressure: 29.92 "Hg

Humidity: 84%

Dew Point: 75 °F

Location of CumanáLocation

Past Weather in Cumaná — Graph

°F

Cumaná Temperature Yesterday

Maximum temperature yesterday: 91 °F (at 3:00 PM)
Minimum temperature yesterday: 77 °F (at 6:00 AM)
Average temperature yesterday: 84 °F

High & Low Weather Summary for the Past Weeks

 TemperatureHumidityPressure
High93 °F (Jul 18, 2:00 PM)100% (Jul 15, 5:00 AM)30.01 "Hg (Jul 15, 5:00 AM)
Low75 °F (Jul 15, 5:00 AM)39% (Jul 21, 2:00 PM)29.80 "Hg (Jul 25, 6:00 PM)
Average83 °F76%29.92 "Hg
* Reported Jul 13 7:00 AM — Jul 28 7:00 AM, Cumaná, Weather by CustomWeather, © 2016

Note: Actual official high and low records may vary slightly from our data, if they occured in-between our weather recording intervals... More about our weather records

Advertising

Cumaná Weather History for the Previous 24 Hours

Scroll right to see more
 ConditionsComfort  
Time TempWeatherWind HumidityBarometerVisibility
7:00 AM
Thu, Jul 28
79 °FPassing clouds.N/A89%29.92 "HgN/A
6:00 AM79 °FPassing clouds.N/A89%29.89 "HgN/A
5:00 AM77 °FPassing clouds.N/A94%29.92 "HgN/A
4:00 AM77 °FPassing clouds.N/A94%29.92 "HgN/A
3:00 AM77 °FPassing clouds.N/A94%29.95 "HgN/A
2:00 AM79 °FPassing clouds.N/A89%29.95 "HgN/A
1:00 AM79 °FPassing clouds.N/A89%29.98 "HgN/A
12:00 AM79 °FPassing clouds.N/A100%29.98 "HgN/A
11:00 PM
Wed, Jul 27
81 °FPassing clouds.N/A94%29.95 "HgN/A
10:00 PM81 °FPassing clouds.N/A74%29.95 "HgN/A
9:00 PM82 °FPassing clouds.N/A66%29.92 "HgN/A
8:00 PM82 °FPassing clouds.N/A62%29.92 "HgN/A
6:00 PM86 °FPassing clouds.N/A52%29.89 "HgN/A
5:00 PM88 °FPassing clouds.N/A49%29.86 "HgN/A
4:00 PM90 °FScattered clouds.N/A46%29.86 "HgN/A
3:00 PM91 °FPassing clouds.N/A52%29.86 "HgN/A
2:00 PM90 °FScattered clouds.N/A59%29.89 "HgN/A
1:00 PM90 °FScattered clouds.N/A63%29.92 "HgN/A
12:00 PM88 °FScattered clouds.N/A66%29.92 "HgN/A
11:00 AM86 °FScattered clouds.N/A75%29.95 "HgN/A
10:00 AM84 °FPassing clouds.N/A79%29.95 "HgN/A
9:00 AM82 °FPassing clouds.N/A84%29.92 "HgN/A
8:00 AM81 °FScattered clouds.N/A89%29.92 "HgN/A
Weather by CustomWeather, © 2016

See weather overviewHow to use our weather pages